HS1WDC-1 Weather Reports


time (UTC)temp
C
wind
direction
speed
KPH
gust
KPH
rain 1hr
cm
rain 24hr
cm
rain mn
cm
humidity
%
barometer
mb
20260505032218 36 0 0.0 0.0 0.00 0.00 0.00 50 1011.0
20260505030653 36 0 0.0 0.0 0.00 0.00 0.00 51 1011.0
20260505025129 35 0 0.0 0.0 0.00 0.00 0.00 52 1011.0
20260505023605 35 0 0.0 0.0 0.00 0.00 0.00 54 1011.0
20260505022040 35 0 0.0 0.0 0.00 0.00 0.00 53 1011.0
20260505020516 35 0 0.0 0.0 0.00 0.00 0.00 53 1011.0
20260505014952 35 0 0.0 0.0 0.00 0.00 0.00 54 1011.0
20260505013427 34 0 0.0 0.0 0.00 0.00 0.00 56 1011.0
20260505011903 34 0 0.0 0.0 0.00 0.00 0.00 57 1011.0
20260505010339 33 0 0.0 0.0 0.00 0.00 0.00 59 1010.0
20260505004815 33 0 0.0 0.0 0.00 0.00 0.00 59 1010.0
20260505003250 32 0 0.0 0.0 0.00 0.00 0.00 61 1010.0
20260505001726 32 0 0.0 0.0 0.00 0.00 0.00 63 1010.0
20260505000204 32 0 0.0 0.0 0.00 0.00 0.00 64 1010.0
20260504234637 32 0 0.0 0.0 0.00 0.00 0.00 63 1010.0
20260504233113 32 0 0.0 0.0 0.00 0.00 0.00 62 1009.0
20260504231549 31 0 0.0 0.0 0.00 0.00 0.00 62 1009.0
20260504230024 32 0 0.0 0.0 0.00 0.00 0.00 60 1009.0
20260504224500 32 0 0.0 0.0 0.00 0.00 0.00 58 1009.0
20260504222936 32 0 0.0 0.0 0.00 0.00 0.00 59 1008.0
20260504221411 32 0 0.0 0.0 0.00 0.00 0.00 58 1008.0
20260504215847 32 0 0.0 0.0 0.00 0.00 0.00 55 1008.0
20260504214323 33 0 0.0 0.0 0.00 0.00 0.00 55 1008.0
20260504212758 32 0 0.0 0.0 0.00 0.00 0.00 56 1008.0
20260504211234 33 0 0.0 0.0 0.00 0.00 0.00 54 1009.0
20260504205710 33 0 0.0 0.0 0.00 0.00 0.00 57 1009.0
20260504204145 33 0 0.0 0.0 0.00 0.00 0.00 60 1009.0
20260504202621 33 0 0.0 0.0 0.00 0.00 0.00 60 1009.0
20260504201057 33 0 0.0 0.0 0.00 0.00 0.00 61 1009.0
20260504195507 33 0 0.0 0.0 0.00 0.00 0.00 60 1010.0
20260504193942 33 0 0.0 0.0 0.00 0.00 0.00 59 1010.0
20260504192418 32 0 0.0 0.0 0.00 0.00 0.00 62 1010.0
20260504190854 33 0 0.0 0.0 0.00 0.00 0.00 59 1010.0
20260504185329 34 0 0.0 0.0 0.00 0.00 0.00 57 1009.0
20260504183805 34 0 0.0 0.0 0.00 0.00 0.00 58 1010.0
20260504182241 35 0 0.0 0.0 0.00 0.00 0.00 58 1010.0
20260504180717 34 0 0.0 0.0 0.00 0.00 0.00 60 1010.0
20260504175152 34 0 0.0 0.0 0.00 0.00 0.00 60 1010.0
20260504173628 34 0 0.0 0.0 0.00 0.00 0.00 60 1010.0
20260504172104 34 0 0.0 0.0 0.00 0.00 0.00 59 1010.0
20260504170539 34 0 0.0 0.0 0.00 0.00 0.00 58 1009.0
20260504160401 35 0 0.0 0.0 0.00 0.00 0.00 58 1010.0
20260504150224 35 0 0.0 0.0 0.00 0.00 0.00 57 1010.0
20260504080628 41 0 0.0 0.0 0.00 0.00 0.00 40 1005.0
20260504050136 37 0 0.0 0.0 0.00 0.00 0.00 51 1009.0
20260504044612 37 0 0.0 0.0 0.00 0.00 0.00 50 1009.0
20260504043047 37 0 0.0 0.0 0.00 0.00 0.00 47 1009.0
20260504041523 40 0 0.0 0.0 0.00 0.00 0.00 40 1009.0
20260504035958 40 0 0.0 0.0 0.00 0.00 0.00 40 1009.0
20260504034434 39 0 0.0 0.0 0.00 0.00 0.00 41 1009.0
20260504032910 40 0 0.0 0.0 0.00 0.00 0.00 40 1009.0